Powrót do katalogu

PRAETORIAN SDA_617

AktywnyMilitariaPO
NORAD 65580·PAYLOAD·🇺🇸 United States

Wystrzelony Sep 10, 2025 z Vandenberg Space Force Base

Loading…

Następne Przeloty (najbliższe 24 godziny)

TLE

ŚwieżeSource: Space-Track

Epoka: Sep 14, 2026, 13:25 UTC

1 65580U 25203R   26257.55929672  .00000064  00000-0  47459-4 0  9996
2 65580  81.3010 288.2973 0006520 315.1564  44.9065 13.83156553 51044

Śledź PRAETORIAN SDA_617 w czasie rzeczywistym z AllMySat

Download on the App Store